Date String (YYYY-MM-DD hh:mm:ss) UTC,Instrument flags,Ambient pressure (hPa),Sample flow (lpm),Bypass flow (lpm),Sample temperature (°C),Ambient temperature (°C),ASC tube jacket temperature (°C),LED temperature (°C),Box temperature (°C),Sample RH (%),Span deviation,Mass concentration (μg/m³),Mass concentration (μg/m³),Mass concentration (μg/m³)
DateTimeUTC,F1_M11,P_M11,Q1_M11,Q2_M11,T1_M11,T2_M11,T3_M11,T4_M11,T5_M11,U1_M11,ZSPAN_M11,X0_M11,X2_M11,X1_M11
2022-11-05 16:00:00,,0811.3,5.00,0.00,22.3,21.6,00.0,31.1,24.3,14.4,0000.0,0001.40,0000.58,0000.28
2022-11-05 16:01:00,,0811.1,5.01,0.00,22.3,21.4,00.0,31.1,24.2,14.4,0000.0,0001.46,0000.59,0000.27
2022-11-05 16:02:00,,0811.0,4.98,0.00,22.3,21.3,00.0,31.1,24.2,14.4,0000.0,0001.51,0000.60,0000.26
2022-11-05 16:03:00,,0810.8,4.98,0.00,22.3,21.1,00.0,31.1,24.2,14.5,0000.0,0001.89,0000.60,0000.26
2022-11-05 16:04:00,,0811.1,4.97,0.00,22.3,20.9,00.0,31.1,24.1,14.4,0000.0,0003.51,0000.63,0000.25
2022-11-05 16:05:00,,0811.2,5.01,0.00,22.3,20.8,00.0,31.1,24.0,14.6,0000.0,0003.64,0000.67,0000.25
2022-11-05 16:06:00,,0811.3,5.01,0.00,22.2,20.7,00.0,31.1,24.0,14.5,0000.0,0003.67,0000.68,0000.24
2022-11-05 16:07:00,,0811.4,5.00,0.00,22.2,20.6,00.0,31.1,23.9,14.7,0000.0,0003.65,0000.67,0000.24
2022-11-05 16:08:00,,0811.3,5.00,0.00,22.2,20.5,00.0,31.1,23.9,14.8,0000.0,0003.68,0000.68,0000.23
2022-11-05 16:09:00,,0811.2,4.99,0.00,22.2,20.5,00.0,31.1,23.9,14.7,0000.0,0003.81,0000.68,0000.22
2022-11-05 16:10:00,,0811.1,5.00,0.00,22.1,20.5,00.0,31.1,23.8,14.6,0000.0,0003.88,0000.65,0000.21
2022-11-05 16:11:00,,0811.1,5.00,0.00,22.1,20.4,00.0,31.1,23.8,14.7,0000.0,0005.20,0000.64,0000.20
2022-11-05 16:12:00,,0811.0,5.00,0.00,22.1,20.4,00.0,31.1,23.8,14.6,0000.0,0010.75,0000.85,0000.21
2022-11-05 16:13:00,,0811.2,5.00,0.00,22.0,20.4,00.0,31.1,23.8,14.8,0000.0,0011.43,0000.89,0000.21
2022-11-05 16:14:00,,0811.2,5.01,0.00,22.0,20.3,00.0,31.1,23.7,14.9,0000.0,0011.58,0000.91,0000.21
2022-11-05 16:15:00,,0811.2,5.01,0.00,22.0,20.2,00.0,31.1,23.7,14.6,0000.0,0011.65,0000.91,0000.21
2022-11-05 16:16:00,,0811.1,4.99,0.00,22.0,20.7,00.0,31.0,23.8,14.6,0000.0,0012.46,0000.92,0000.21
2022-11-05 16:17:00,,0811.1,5.00,0.00,22.1,21.9,00.0,31.0,24.1,14.5,0000.0,0012.48,0000.91,0000.20
2022-11-05 16:18:00,,0811.4,5.01,0.00,22.2,22.5,00.0,31.0,24.4,14.4,0000.0,0012.51,0000.92,0000.20
2022-11-05 16:19:00,,0811.3,4.98,0.00,22.3,22.3,00.0,31.0,24.4,14.5,0000.0,0012.49,0000.92,0000.20
2022-11-05 16:20:00,,0811.4,5.00,0.00,22.3,21.9,00.0,31.1,24.3,14.6,0000.0,0012.47,0000.94,0000.21
2022-11-05 16:21:00,,0811.2,5.00,0.00,22.3,21.7,00.0,31.1,24.3,14.5,0000.0,0012.41,0000.99,0000.21
2022-11-05 16:22:00,,0811.2,4.99,0.00,22.3,21.5,00.0,31.1,24.2,14.5,0000.0,0012.48,0001.04,0000.21
2022-11-05 16:23:00,,0811.3,5.01,0.00,22.3,21.3,00.0,31.1,24.2,14.5,0000.0,0007.24,0000.78,0000.19
2022-11-05 16:24:00,,0811.2,5.00,0.00,22.3,21.1,00.0,31.2,24.1,14.5,0000.0,0006.76,0000.69,0000.18
2022-11-05 16:25:00,,0811.3,5.00,0.00,22.3,21.0,00.0,31.2,24.1,14.6,0000.0,0006.23,0000.64,0000.18
2022-11-05 16:26:00,,0811.2,4.99,0.00,22.3,20.9,00.0,31.2,24.0,14.6,0000.0,0004.81,0000.63,0000.18
2022-11-05 16:27:00,,0811.1,5.02,0.00,22.3,20.8,00.0,31.2,24.0,14.4,0000.0,0002.87,0000.58,0000.18
2022-11-05 16:28:00,,0811.1,4.99,0.00,22.2,20.7,00.0,31.2,24.0,14.4,0000.0,0002.76,0000.59,0000.19
2022-11-05 16:29:00,,0811.4,5.01,0.00,22.2,20.6,00.0,31.2,24.0,14.4,0000.0,0003.60,0000.61,0000.19
2022-11-05 16:30:00,,0811.1,5.00,0.00,22.2,20.5,00.0,31.2,23.9,14.4,0000.0,0007.18,0000.61,0000.19
2022-11-05 16:31:00,,0811.0,4.99,0.00,22.2,20.4,00.0,31.2,23.9,14.4,0000.0,0008.06,0000.64,0000.19
2022-11-05 16:32:00,,0811.1,5.02,0.00,22.1,20.4,00.0,31.1,23.8,14.3,0000.0,0008.61,0000.72,0000.20
2022-11-05 16:33:00,,0811.1,4.99,0.00,22.1,20.4,00.0,31.1,23.8,14.3,0000.0,0008.74,0000.72,0000.20
2022-11-05 16:34:00,,0811.0,5.01,0.00,22.1,20.3,00.0,31.1,23.8,14.5,0000.0,0008.80,0000.76,0000.21
2022-11-05 16:35:00,,0810.9,5.00,0.00,22.0,20.3,00.0,31.1,23.8,14.3,0000.0,0008.33,0000.78,0000.20
2022-11-05 16:36:00,,0811.0,5.01,0.00,22.0,20.3,00.0,31.1,23.7,14.2,0000.0,0008.27,0000.80,0000.20
2022-11-05 16:37:00,,0810.9,5.00,0.00,22.0,20.4,00.0,31.1,23.8,14.3,0000.0,0008.99,0000.81,0000.20
2022-11-05 16:38:00,,0810.8,5.00,0.00,22.1,21.5,00.0,31.0,24.0,14.3,0000.0,0009.57,0000.84,0000.19
2022-11-05 16:39:00,,0810.9,4.99,0.00,22.2,22.4,00.0,31.0,24.3,14.3,0000.0,0014.80,0000.94,0000.19
2022-11-05 16:40:00,,0811.0,5.00,0.00,22.3,22.3,00.0,31.0,24.4,14.1,0000.0,0019.06,0000.98,0000.19
2022-11-05 16:41:00,,0810.7,5.00,0.00,22.3,21.9,00.0,31.1,24.3,14.1,0000.0,0017.05,0000.97,0000.19
2022-11-05 16:42:00,,0810.9,4.99,0.00,22.3,21.7,00.0,31.1,24.3,13.9,0000.0,0016.34,0000.96,0000.19
2022-11-05 16:43:00,,0811.0,5.00,0.00,22.3,21.5,00.0,31.1,24.3,13.9,0000.0,0015.64,0000.83,0000.17
2022-11-05 16:44:00,,0810.9,5.00,0.00,22.3,21.3,00.0,31.1,24.2,14.0,0000.0,0015.21,0000.74,0000.15
2022-11-05 16:45:00,,0811.1,5.02,0.00,22.3,21.2,00.0,31.1,24.2,13.9,0000.0,0015.24,0000.73,0000.14
2022-11-05 16:46:00,,0810.9,5.00,0.00,22.3,21.0,00.0,31.1,24.2,13.9,0000.0,0015.34,0000.72,0000.13
2022-11-05 16:47:00,,0811.0,5.00,0.00,22.3,20.9,00.0,31.1,24.1,13.9,0000.0,0015.48,0000.70,0000.12
2022-11-05 16:48:00,,0811.0,5.00,0.00,22.3,20.9,00.0,31.1,24.1,13.8,0000.0,0014.93,0000.65,0000.12
2022-11-05 16:49:00,,0810.9,4.99,0.00,22.3,20.8,00.0,31.1,24.1,14.2,0000.0,0014.33,0000.58,0000.11
2022-11-05 16:50:00,,0810.9,4.99,0.00,22.3,20.8,00.0,31.1,24.1,14.1,0000.0,0012.53,0000.53,0000.10
2022-11-05 16:51:00,,0810.9,5.01,0.00,22.2,20.7,00.0,31.1,24.0,14.0,0000.0,0004.72,0000.42,0000.10
2022-11-05 16:52:00,,0810.8,5.01,0.00,22.2,20.7,00.0,31.1,24.0,14.0,0000.0,0003.98,0000.43,0000.09
2022-11-05 16:53:00,,0810.8,5.01,0.00,22.2,20.6,00.0,31.1,24.0,13.8,0000.0,0003.84,0000.42,0000.09
2022-11-05 16:54:00,,0810.5,4.99,0.00,22.2,20.5,00.0,31.1,23.9,13.9,0000.0,0003.72,0000.40,0000.09
2022-11-05 16:55:00,,0810.8,5.00,0.00,22.1,20.4,00.0,31.1,23.9,13.8,0000.0,0009.39,0000.50,0000.10
2022-11-05 16:56:00,,0810.9,5.00,0.00,22.1,20.4,00.0,31.1,23.8,13.7,0000.0,0009.70,0000.48,0000.10
2022-11-05 16:57:00,,0810.9,5.00,0.00,22.1,20.3,00.0,31.1,23.8,14.2,0000.0,0009.59,0000.44,0000.09
2022-11-05 16:58:00,,0810.8,5.00,0.00,22.1,20.3,00.0,31.1,23.8,14.1,0000.0,0009.31,0000.44,0000.09
2022-11-05 16:59:00,,0810.7,5.00,0.00,22.0,20.3,00.0,31.1,23.8,14.1,0000.0,0009.25,0000.44,0000.09
